Weather History for KHSE - September, 2014

Change the Weather History Date:

Sunday, September 21, 2014

  Actual Average Record
Temperature  
Mean Temperature 74 °F 73 °F  
Max Temperature 77 °F 79 °F 90 °F (1895)
Min Temperature 70 °F 68 °F 55 °F (1918)
Degree Days  
Heating Degree Days 0 0  
Month to date heating degree days 0 0  
Since 1 July heating degree days 0 0  
Cooling Degree Days 9 8  
Month to date cooling degree days 238 221  
Year to date cooling degree days 1614 1527  
Growing Degree Days 23 (Base 50)    
Moisture  
Dew Point 70 °F    
Average Humidity 88    
Maximum Humidity 100    
Minimum Humidity 76    
Precipitation  
Precipitation 1.39 in 0.20 in 3.80 in (1994)
Month to date precipitation 7.65 4.56  
Year to date precipitation 48.70 41.75  
Snow  
Snow 0.00 in - - ()
Month to date snowfall 0.0  
Since 1 July snowfall 0.0  
Snow Depth 0.00 in    
Sea Level Pressure  
Sea Level Pressure 29.77 in    
Wind  
Wind Speed 10 mph (NNE)    
Max Wind Speed 20 mph    
Max Gust Speed 26 mph    
Visibility 7 miles    
Events Rain    
T = Trace of Precipitation, MM = Missing Value Source: NWS Daily Summary

Daily Weather History Graph

Daily Weather History Graph

Search for Another Location

Airport or City:

Trip Planner

Search our weather history database for the weather conditions in past years. The results will help you decide how hot, cold, wet, or windy it might be!

Date:

Astronomy

Sep. 21, 2014 Rise Set
Actual Time 6:49 AM EDT 7:00 PM EDT
Civil Twilight 6:24 AM EDT 7:26 PM EDT
Nautical Twilight 5:54 AM EDT 7:55 PM EDT
Astronomical Twilight 5:24 AM EDT 8:25 PM EDT
Moon 4:25 AM EDT (9/21) 5:32 PM EDT (9/21)
Length of Visible Light 13h 01m
Length of Day
12h 11m
Waning Crescent, 6% of the Moon is Illuminated
Sep 21
Waning Crescent
Sep 24
New
Oct 1
First Quarter
Oct 8
Full
Oct 15
Last Quarter

Hourly Weather History & Observations

Time (EDT) Temp. Dew Point Humidity Pressure Visibility Wind Dir Wind Speed Gust Speed Precip Events Conditions
12:12 AM 69.1 °F 69.1 °F 100% 29.90 in 2.0 mi ENE 6.9 mph - 0.15 in Rain Heavy Rain
12:27 AM 69.8 °F 69.8 °F 100% 29.88 in 3.0 mi NE 8.1 mph - N/A Rain Rain
12:35 AM 69.1 °F 69.1 °F 100% 29.88 in 5.0 mi Variable 5.8 mph - 0.36 in Rain Light Rain
12:44 AM 70.0 °F 70.0 °F 100% 29.87 in 3.0 mi NE 6.9 mph - 0.41 in Rain Rain
12:51 AM 70.0 °F 70.0 °F 100% 29.87 in 5.0 mi Variable 3.5 mph - 0.43 in Rain Light Rain
1:18 AM 71.1 °F 71.1 °F 100% 29.84 in 10.0 mi NE 6.9 mph - 0.00 in   Mostly Cloudy
1:46 AM 71.6 °F 71.6 °F 100% 29.84 in 5.0 mi East 10.4 mph 18.4 mph 0.06 in Rain Light Rain
1:51 AM 71.1 °F 71.1 °F 100% 29.84 in 3.0 mi ESE 16.1 mph 24.2 mph 0.13 in Rain Heavy Rain
1:56 AM 71.1 °F 71.1 °F 100% 29.84 in 2.0 mi ESE 18.4 mph 24.2 mph 0.05 in Rain Heavy Rain
2:01 AM 70.0 °F 70.0 °F 100% 29.83 in 1.8 mi ESE 12.7 mph 23.0 mph 0.12 in Rain Heavy Rain
2:07 AM 70.0 °F 70.0 °F 100% 29.82 in 1.2 mi East 8.1 mph 18.4 mph 0.29 in Rain Heavy Rain
2:18 AM 70.0 °F 70.0 °F 100% 29.82 in 1.8 mi Variable 4.6 mph 17.3 mph 0.51 in Rain Heavy Rain
2:29 AM 70.0 °F 70.0 °F 100% 29.81 in 1.5 mi East 12.7 mph 19.6 mph 0.74 in Rain Heavy Rain
2:35 AM 71.1 °F 71.1 °F 100% 29.81 in 3.0 mi East 8.1 mph 19.6 mph 0.78 in Rain Heavy Rain
2:48 AM 71.6 °F 71.6 °F 100% 29.80 in 3.0 mi ENE 5.8 mph - 0.86 in Rain Heavy Rain
2:51 AM 71.1 °F 71.1 °F 100% 29.79 in 3.0 mi ENE 4.6 mph - 0.87 in Rain Rain
3:28 AM 71.1 °F 71.1 °F 100% 29.77 in 6.0 mi East 8.1 mph 17.3 mph 0.09 in Rain Rain
3:35 AM 71.1 °F 71.1 °F 100% 29.77 in 5.0 mi East 9.2 mph - 0.10 in Rain Rain
3:51 AM 71.1 °F 71.1 °F 100% 29.76 in 4.0 mi ENE 6.9 mph - 0.13 in Rain Rain
4:31 AM 70.0 °F 70.0 °F 100% 29.74 in 5.0 mi NE 9.2 mph - 0.09 in Rain Rain
4:51 AM 70.0 °F 70.0 °F 100% 29.73 in 6.0 mi NNE 6.9 mph - 0.13 in Rain Rain
5:04 AM 70.0 °F 70.0 °F 100% 29.73 in 8.0 mi NNE 8.1 mph - 0.02 in Rain Light Rain
5:32 AM 70.0 °F 70.0 °F 100% 29.72 in 7.0 mi NNE 8.1 mph 16.1 mph 0.07 in Rain Light Rain
5:43 AM 70.0 °F 70.0 °F 100% 29.72 in 7.0 mi NNE 9.2 mph - 0.08 in Rain Light Rain
5:51 AM 70.0 °F 70.0 °F 100% 29.72 in 6.0 mi NNE 12.7 mph 25.3 mph 0.09 in Rain Light Rain
5:55 AM 70.0 °F 70.0 °F 100% 29.72 in 6.0 mi NNE 11.5 mph 25.3 mph 0.01 in Rain Light Rain
6:10 AM 70.0 °F 70.0 °F 100% 29.71 in 7.0 mi NNE 10.4 mph 20.7 mph 0.02 in Rain Light Rain
6:22 AM 70.0 °F 70.0 °F 100% 29.71 in 10.0 mi NNE 10.4 mph 20.7 mph 0.03 in Rain Light Rain
6:39 AM 70.0 °F 70.0 °F 100% 29.71 in 10.0 mi NNE 8.1 mph - 0.03 in   Overcast
6:51 AM 70.0 °F 70.0 °F 100% 29.71 in 10.0 mi NNE 9.2 mph 17.3 mph 0.03 in   Overcast
7:21 AM 70.0 °F 70.0 °F 100% 29.72 in 10.0 mi NE 9.2 mph - N/A   Overcast
7:44 AM 70.0 °F 70.0 °F 100% 29.71 in 9.0 mi NNE 9.2 mph - 0.00 in Rain Light Rain
7:51 AM 70.0 °F 70.0 °F 100% 29.71 in 9.0 mi NNE 8.1 mph - 0.00 in Rain Light Rain
8:04 AM 70.0 °F 70.0 °F 100% 29.71 in 10.0 mi NNE 9.2 mph 17.3 mph 0.01 in Rain Light Rain
8:51 AM 71.1 °F 71.1 °F 100% 29.72 in 10.0 mi North 8.1 mph - 0.01 in   Overcast
8:59 AM 71.1 °F 71.1 °F 100% 29.73 in 10.0 mi North 9.2 mph - N/A   Overcast
9:36 AM 72.0 °F 72.0 °F 100% 29.73 in 10.0 mi NNW 8.1 mph - N/A   Overcast
9:47 AM 71.6 °F 71.6 °F 100% 29.73 in 10.0 mi Variable 4.6 mph - N/A   Overcast
9:51 AM 73.0 °F 72.0 °F 96% 29.73 in 10.0 mi North 8.1 mph - N/A   Overcast
10:06 AM 71.1 °F 71.1 °F 100% 29.74 in 5.0 mi Variable 5.8 mph - N/A   Overcast
10:37 AM 73.0 °F 72.0 °F 96% 29.74 in 10.0 mi Variable 6.9 mph - N/A   Overcast
10:51 AM 73.0 °F 72.0 °F 96% 29.73 in 10.0 mi Variable 6.9 mph 19.6 mph N/A   Overcast
11:30 AM 73.9 °F 71.1 °F 91% 29.74 in 10.0 mi NNW 11.5 mph 20.7 mph N/A   Overcast
11:51 AM 73.9 °F 71.1 °F 91% 29.74 in 10.0 mi NNW 9.2 mph 21.9 mph N/A   Overcast
12:33 PM 73.9 °F 70.0 °F 87% 29.74 in 10.0 mi NNW 12.7 mph 24.2 mph N/A   Overcast
1:26 PM 73.9 °F 71.1 °F 91% 29.75 in 10.0 mi Variable 5.8 mph - 0.00 in   Overcast
1:43 PM 73.9 °F 72.0 °F 93% 29.75 in 10.0 mi Variable 4.6 mph - 0.00 in   Overcast
1:51 PM 75.9 °F 72.0 °F 87% 29.74 in 10.0 mi Variable 5.8 mph - 0.00 in   Mostly Cloudy
2:26 PM 75.0 °F 71.1 °F 87% 29.74 in 10.0 mi NW 6.9 mph - N/A   Mostly Cloudy
2:51 PM 75.9 °F 71.1 °F 85% 29.75 in 10.0 mi NW 10.4 mph - N/A   Mostly Cloudy
3:51 PM 75.9 °F 70.0 °F 82% 29.76 in 10.0 mi WNW 13.8 mph 20.7 mph N/A   Clear
4:51 PM 77.0 °F 70.0 °F 79% 29.78 in 10.0 mi WNW 5.8 mph - N/A   Clear
5:51 PM 73.9 °F 69.1 °F 85% 29.79 in 10.0 mi West 9.2 mph 17.3 mph N/A   Clear
6:51 PM 72.0 °F 66.0 °F 81% 29.80 in 10.0 mi West 8.1 mph - N/A   Clear
7:51 PM 72.0 °F 66.9 °F 84% 29.83 in 8.0 mi West 8.1 mph - N/A   Clear
8:51 PM 73.9 °F 66.9 °F 79% 29.85 in 10.0 mi WSW 10.4 mph - N/A   Clear
9:51 PM 73.9 °F 70.0 °F 87% 29.86 in 10.0 mi WSW 11.5 mph - N/A   Clear
10:51 PM 73.9 °F 69.1 °F 85% 29.86 in 10.0 mi WSW 12.7 mph 19.6 mph N/A   Clear
11:51 PM 75.0 °F 70.0 °F 84% 29.86 in 10.0 mi WSW 13.8 mph 25.3 mph N/A   Clear